AirNav   Everest Fuels
 
 1135 users online  

1T7 Kestrel Airpark
San Antonio, Texas, USA

GOING TO SAN ANTONIO?


FAA INFORMATION EFFECTIVE 19 MAY 2022

Location

FAA Identifier: 1T7
Lat/Long: 29-48-42.3000N 098-25-33.8000W
29-48.705000N 098-25.563333W
29.8117500,-98.4260556
(estimated)
Elevation: 1261 ft. / 384 m (estimated)
Variation: 07E (1995)
From city: 23 miles N of SAN ANTONIO, TX
Time zone: UTC -5 (UTC -6 during Standard Time)
Zip code: 78070

Airport Operations

Airport use: Open to the public
Activation date: 06/1999
Control tower: no
ARTCC: HOUSTON CENTER
FSS: SAN ANGELO FLIGHT SERVICE STATION
NOTAMs facility: SJT (NOTAM-D service available)
Attendance: CONTINUOUS
Wind indicator: yes
Segmented circle: yes
Lights: SS-SR

Airport Communications

CTAF/UNICOM: 122.975
WX AWOS-3 at 5C1 (15 nm W): 118.725 (830-755-9099)
WX ASOS at SAT (17 nm S): PHONE 210-805-5583

Nearby radio navigation aids

VOR radial/distance  VOR name  Freq  Var
SATr002/10.2SAN ANTONIO VORTAC116.8008E
RNDr332/19.0RANDOLPH VORTAC112.3005E
STVr140/27.8STONEWALL VORTAC113.8008E
SSFr353/(33.2)STINSON VOR108.4009E

 
NDB name  Hdg/Dist  Freq  Var  ID
ALAMO027/14.436804EAN .- -.

Airport Services

Fuel available: 100LL
100LL:SELF SERV FUEL. FOR ASSISTANCE CALL 830-522-1885.
Parking: tiedowns
Airframe service: MAJOR
Powerplant service: MAJOR
Bulk oxygen: HIGH

Runway Information

Runway 12/30

Dimensions: 3000 x 40 ft. / 914 x 12 m
Surface: asphalt, in good condition
Runway edge lights: non-standard
NONSTD LIRL; RWY 12 LGTS NOT AT THR.
Runway edge markings: RWY NRS 35 FT HIGH.
Operational restrictions: RWY 30 RISES RAPIDLY AT NORTH END. 12 END 49 FT HIGHER THAN 30 END.
RUNWAY 12  RUNWAY 30
Latitude: 29-48.856647N29-48.553942N
Longitude: 098-25.788255W098-25.339040W
Elevation: 1261.0 ft.1218.0 ft.
Traffic pattern: leftright
Runway heading: 121 magnetic, 128 true301 magnetic, 308 true
Markings: NSTD, in good conditionNSTD, in good condition
Obstructions: 21 ft. trees, 295 ft. from runway, 30 ft. left of centerline, 4:1 slope to clear
15 FT RD 0 FT DSTC 70 FT L; 35 FT TREE 110 FT DSTC, 70 FT L; 35 FT TREE, O FT DSTC, 85 FT L.
15 ft. road, 200 ft. from runway
15 FT RD 0 FT DSTC 67 FT L.

Airport Ownership and Management from official FAA records

Ownership: Privately-owned
Owner: KESTREL AIRPARK RUNWAY ASSOCIATION
150 FLIGHTLINE DRIVE
SPRING BRANCH, TX 78070
Phone (830) 522-1885
Manager: DOUG HOOKER
210 KESTREL DRIVE
SPRING BRANCH, TX 78070
Phone (830) 522-1885

Airport Operational Statistics

Aircraft based on the field: 83
Single engine airplanes: 75
Multi engine airplanes: 5
Helicopters: 2
Ultralights: 1
    
Aircraft operations: avg 133/week *
95% local general aviation
5% transient general aviation
* for 12-month period ending 10 May 2020

Additional Remarks

DEER ON & INVOF RWY.
TGL AND LOW APCHS PROHIBITED FOR TRAN & COML ACFT. TKOFS RSTRD BTN 2200-0600.
HEL TRNG OPS PROHIBITED.
FOR CD CTC SAN ANTONIO APCH AT 210-805-5516.
USE EXTREME CTN FOR HIGH PER MIL ACFT FROM RANDOLPH AFB AT OR ABV 3000 FT MSL MON-FRI 0800-2200 AND WHEN TWR HRS EXTD BY NOTAM, OCNL SAT AND SUN.
RWY 12 120 FT RISING TRRN 0.4 MI NW OF RWY END. NONSTD AIMING POINT MARKINGS AT 500 FT, 2490 FT REMAINING.

Instrument Procedures

There are no published instrument procedures at 1T7.

Some nearby airports with instrument procedures:

5C1 - Boerne Stage Field Airport (15 nm W)
KSAT - San Antonio International Airport (17 nm S)
KRND - Randolph Air Force Base (19 nm SE)
KBAZ - New Braunfels National Airport (21 nm E)
KSKF - Kelly Field Airport (27 nm S)
 
Loc | Ops | Rwys | IFR | FBO | Links
Com | Nav | Svcs | Stats | Notes
Area around 1T7 (Kestrel Airpark)
 
Road maps at: MapQuest Bing Google
 
Aerial photo
WARNING: Photo may not be current or correct
Aerial photo of 1T7 (Kestrel Airpark)
Do you have a better or more recent aerial photo of Kestrel Airpark that you would like to share? If so, please send us your photo.

 
Sectional chart

 
Airport distance calculator
Flying to Kestrel Airpark? Find the distance to fly.

From to 1T7

Sunrise and sunset
Times for 26-May-2022
 Local
(UTC-5)
 Zulu
(UTC)
Morning civil twilight06:1011:10
Sunrise06:3611:36
Sunset20:2501:25
Evening civil twilight20:5201:52

Current date and time
Zulu (UTC)  27-May-2022 01:30:19
Local (UTC-5)  26-May-2022 20:30:19
 
METAR
K5C1 
15nm W 
270115Z AUTO 00000KT 10SM CLR 28/11 A2994 RMK AO1
KSAT 
17nm S 
270051Z 00000KT 10SM CLR 33/12 A2990 RMK AO2 SLP106 T03280122
KRND 
20nm SE 
270056Z AUTO 09004KT 10SM CLR 29/16 A2987 RMK AO2 SLP108 T02920160
KBAZ 
20nm E 
270051Z AUTO 18006KT 10SM CLR 31/15 A2988 RMK AO2 SLP110 T03060150
KSKF 
28nm S 
270056Z AUTO 00000KT 10SM CLR 31/16 A2987 RMK AO2 SLPNO T03080164 $
KSSF 
29nm S 
270053Z 20004KT 10SM CLR 33/14 A2986 RMK AO2 SLP100 T03330144 $
KHYI 
29nm E 
270056Z 17006KT 10SM FEW001 32/14 A2990 RMK AO2 SLP114 T03170139
TAF
KSAT 
17nm S 
261730Z 2618/2724 23008KT P6SM SKC FM270000 16006KT P6SM SKC FM271500 20007KT P6SM FEW040 FM272100 15007KT P6SM FEW060
KRND 
20nm SE 
261530Z 2616/2722 21010G15KT 9999 SKC QNH2988INS BECMG 2708/2709 VRB06KT 9999 SKC QNH2992INS TX35/2622Z TN20/2712Z LAST NO AMDS AFT 2700 NEXT 3110
NOTAMs
Click for the latest NOTAMs
NOTAMs are issued by the DoD/FAA and will open in a separate window not controlled by AirNav.

 

 
 

FBO, Fuel Providers, and Aircraft Ground Support

  
 Business Name 
 
 Contact 
 
 Services / Description 
 
Fuel Prices
 
Comments
  
 Aloha Aviation Services
830-522-1885
[web site]
[email]
Aviation fuel, Oxygen service, Aircraft parking (ramp or tiedown), Hangars, Hangar leasing / sales, Passenger terminal and lounge, Flight training, ...

More info about Aloha Aviation Services
Phillips 66
100LL
SS $6.68 
GUARANTEED
 
   2 read write
SS=Self service
Update Fuel Prices
 

Would you like to see your business listed on this page?

 If your business provides an interesting product or service to pilots, flight crews, aircraft, or users of the Kestrel Airpark, you should consider listing it here.  To start the listing process, click on the button below
 
Add a business
 

Other Pages about Kestrel Airpark

www.kestrelairport.com
www.kestrel-airpark.com
 
Update a link
 
Copyright © AirNav, LLC. All rights reserved. Privacy Policy  Contact